#timestamp,LO_Frequency,Hit,StdDev 
1611846015.3,286046996.5,N
1611846035.1,286046999.3,N
1611846055.9,286046998.7,N
1611846075.7,286046999.6,N
1611846095.5,286046999.4,N
1611846115.4,286046998.9,N
1611846135.2,286046996.6,N
1611846155.0,286046998.8,N
1611846155.9,286046998.8,N
1611846175.8,286046998.4,N
1611846195.6,286047000.3,N
1611846215.5,286047004.1,N
1611846235.3,286047004.1,N
1611846255.1,286047003.7,N
1611846275.9,286047004.3,N
1611846295.7,286047002.5,N
1611846315.5,286046998.6,N
1611846335.4,286046999.5,N
1611846355.2,286046998.4,N
1611846375.1,286047001.1,N
1611846376.0,286047001.1,N
1611846395.8,286047000.8,N
1611846415.6,286047000.9,N
1611846435.5,286046999.9,N
1611846455.3,286047002.5,N
1611846475.2,286047011.9,Y
1611846495.9,286047003.3,P
1611846515.7,286047007.4,P
1611846535.6,286047003.0,N
1611846555.4,286047002.5,N
1611846575.3,286046998.3,N
1611846595.1,286046998.9,N
1611846596.0,286046998.9,N
1611846615.8,286046997.3,N
1611846635.7,286046997.5,N
1611846655.5,286046998.8,N
1611846675.3,286046996.9,N
1611846695.2,286046995.3,N
1611846715.0,286046993.5,N
1611846715.9,286046993.5,N
1611846735.8,286046996.3,N
1611846755.6,286046997.3,N
1611846775.4,286047000.0,N
1611846795.3,286047000.5,N
1611846815.1,286047001.0,N
1611846835.9,286047002.2,N
1611846855.7,286047005.8,N
1611846875.5,286047004.1,N
1611846895.4,286046999.9,N
1611846915.2,286047000.4,N
1611846935.0,286046998.1,N
1611846935.9,286046998.1,N
1611846955.8,286047000.9,N
1611846975.6,286046998.6,N
1611846995.5,286046998.5,N
1611847015.3,286046998.3,N
1611847035.1,286047000.7,N
1611847055.9,286047001.1,N
1611847075.7,286047000.4,N
1611847095.5,286047002.4,N
1611847115.4,286047001.1,N
1611847135.2,286046998.2,N
1611847155.1,286046998.2,N
1611847156.0,286046998.2,N
1611847175.8,286046998.5,N
1611847195.6,286046999.6,N
1611847215.5,286046997.2,N
1611847235.3,286046996.8,N
1611847255.2,286046997.1,N
1611847275.9,286046996.8,N
1611847295.7,286046997.6,N
1611847315.6,286046998.3,N
1611847335.4,286047000.9,N
1611847355.2,286047001.2,N
1611847375.1,286047000.8,N
1611847376.0,286047000.8,N
1611847395.8,286047000.9,N
1611847415.7,286046999.9,N
1611847435.5,286047000.4,N
1611847455.3,286047000.7,N
1611847475.2,286046998.4,N
1611847495.0,286047000.5,N
1611847495.9,286047000.5,N
1611847515.8,286047000.7,N
1611847535.6,286047000.2,N
1611847555.4,286047002.8,N
1611847575.3,286047011.9,Y
1611847595.1,286046999.7,P
1611847615.9,286046999.8,P
1611847635.7,286047003.6,P
1611847655.5,286047001.1,N
1611847675.4,286046996.5,N
1611847695.2,286046995.0,N
1611847715.0,286046993.4,N
1611847715.9,286046993.4,N
1611847735.8,286046992.2,N
1611847755.6,286046991.9,N
1611847775.5,286046992.1,N
1611847795.3,286046996.0,N
1611847815.1,286046993.5,N
1611847835.9,286046995.0,N
1611847855.7,286046997.9,N
1611847875.6,286046997.5,N
1611847895.4,286046998.3,N
1611847915.2,286046998.5,N
1611847935.1,286047001.2,N
1611847936.0,286047001.2,N
1611847955.8,286047000.5,N
1611847975.6,286047001.2,N
1611847995.5,286046997.2,N
1611848015.3,286046999.4,N
1611848035.2,286047001.2,N
1611848055.9,286046999.2,N
1611848075.7,286046997.2,N
1611848095.6,286046996.7,N
1611848115.4,286046997.4,N
1611848135.2,286046997.5,N
1611848155.1,286046997.2,N
1611848156.0,286046997.2,N
1611848175.8,286046997.1,N
1611848195.7,286046998.4,N
1611848215.5,286046998.1,N
1611848235.3,286046998.8,N
1611848255.2,286046998.5,N
1611848275.0,286046998.8,N
1611848275.9,286046998.8,N
1611848295.8,286046996.7,N
1611848315.6,286046996.8,N
1611848335.4,286046998.3,N
1611848355.3,286047000.4,N
1611848375.1,286047000.0,N
1611848395.9,286047004.4,Y
1611848415.7,286047002.9,P
1611848435.5,286047003.6,N
1611848455.4,286047004.1,N
1611848475.2,286047001.6,N
1611848495.0,286046999.8,N
1611848495.9,286046999.8,N
1611848515.8,286047000.4,N
1611848535.6,286047001.1,N
1611848555.5,286047002.3,N
1611848575.3,286047002.3,N
1611848595.1,286047002.2,N
1611848615.9,286047002.9,N
1611848635.7,286047002.9,N
1611848655.6,286047003.9,N
1611848675.4,286047002.3,N
1611848695.2,286047002.1,N
1611848715.1,286047002.2,N
1611848716.0,286047002.2,N
1611848735.8,286047002.7,N
1611848755.6,286047004.4,Y
1611848775.5,286047000.2,P
1611848795.3,286047001.3,N
1611848815.2,286047001.5,N
1611848835.9,286047001.4,N
1611848855.7,286047004.3,Y
1611848875.6,286047001.9,P
1611848895.4,286047000.9,N
1611848915.3,286047000.2,N
1611848935.1,286046999.9,N
1611848936.0,286046999.9,N
1611848955.8,286046999.0,N
1611848975.7,286046999.1,N
1611848995.5,286046999.5,N
1611849015.3,286047000.1,N
1611849035.2,286047001.7,N
1611849055.0,286047001.8,N
1611849055.9,286047001.8,N
1611849075.8,286047000.1,N
1611849095.6,286047002.5,N
1611849115.4,286047003.9,Y
1611849135.3,286047001.6,P
1611849155.1,286047004.0,P
1611849175.9,286047001.8,N
1611849195.7,286047001.7,N
1611849215.5,286047004.1,Y
1611849235.4,286047000.1,P
1611849255.2,286047000.0,N
1611849275.0,286047000.3,N
1611849276.0,286047000.3,N
1611849295.8,286047000.9,N
1611849315.6,286047000.6,N
1611849335.5,286047002.2,Y
1611849355.3,286047000.8,P
1611849375.1,286047001.2,P
1611849395.9,286047000.8,P
1611849415.7,286047000.7,Y
1611849435.6,286047002.7,P
1611849455.4,286046999.9,N
1611849475.2,286046998.6,N
1611849495.1,286046998.5,N
1611849496.0,286046998.5,N
1611849515.8,286047000.7,N
1611849535.7,286047001.6,N
1611849555.5,286047002.7,N
1611849575.3,286046998.1,N
1611849595.2,286046998.4,N
